time_stamp(utc),avg(mph),gust(mph),direction(deg),12m_air_temp(f),sonic_u(cm/s),sonic_v(cm/s),sonic_w(cm/s),pressure,2m_air_temp(f),pyranometer(W/m^2)
"2019-03-12 00:02:06+00",11.1,12.1,,51.9,-456,-150,11,1016.73,43.2,0
"2019-03-12 00:07:06+00",9.8,10.8,,51.3,-447,-179,11,1016.81,42.9,0
"2019-03-12 00:12:06+00",9.5,9.5,,49.9,-438,-183,3,1016.83,42.7,0
"2019-03-12 00:17:06+00",11.0,12.0,,49.8,-441,-128,0,1016.84,42.5,0
"2019-03-12 00:22:06+00",11.4,11.4,,49.7,-460,-139,3,1016.92,42.3,0
"2019-03-12 00:27:06+00",12.1,13.1,,50.3,-531,-26,5,1016.84,42.6,0
"2019-03-12 00:32:06+00",10.7,11.7,,50.7,-452,-68,17,1016.86,43.6,0
"2019-03-12 00:37:06+00",12.2,12.2,,49.8,-493,-154,11,1016.91,43.9,0
"2019-03-12 00:42:06+00",12.2,12.2,,50.6,-496,-117,9,1016.88,43.7,0
"2019-03-12 00:47:06+00",11.0,12.0,,49.2,-466,-163,12,1016.9,43.3,0
"2019-03-12 00:52:06+00",10.4,10.4,,49.6,-437,-153,10,1016.84,42.8,0
"2019-03-12 00:57:06+00",11.2,11.2,,50,-475,-167,12,1016.83,42.5,0
"2019-03-12 01:02:06+00",10.2,11.2,,50.3,-476,-213,10,1016.77,42.4,0
"2019-03-12 01:07:06+00",11.6,12.6,,49.9,-426,-269,14,1016.68,42.8,0
"2019-03-12 01:12:06+00",11.5,12.5,,48.9,-426,-260,10,1016.66,42.9,0
"2019-03-12 01:17:06+00",11.9,12.9,,47.8,-445,-268,7,1016.72,42.8,0
"2019-03-12 01:22:06+00",11.5,12.5,,47.2,-439,-261,7,1016.66,42.8,0
"2019-03-12 01:27:06+00",12.1,13.1,,47.1,-473,-270,8,1016.7,43.2,0
"2019-03-12 01:32:06+00",11.5,12.5,,47,-476,-253,13,1016.72,43.7,0
"2019-03-12 01:37:06+00",10.7,11.7,,46.6,-390,-261,7,1016.63,44.1,0
"2019-03-12 01:42:06+00",10.2,11.2,,47.4,-455,-187,7,1016.54,44.2,0
"2019-03-12 01:47:06+00",10.9,11.9,,47.3,-447,-142,3,1016.54,44.2,0
"2019-03-12 01:52:06+00",9.8,10.8,,47.2,-434,-177,2,1016.51,43.9,0
"2019-03-12 01:57:06+00",11.0,12.0,,47.1,-441,-237,7,1016.52,43.8,0
"2019-03-12 02:02:06+00",10.8,11.8,,46.3,-350,-299,2,1016.64,43.8,0
"2019-03-12 02:07:06+00",8.8,10.8,,45.8,-307,-219,-4,1016.66,43.6,0
"2019-03-12 02:12:06+00",9.4,10.4,,46.5,-306,-276,8,1016.57,43.6,0
"2019-03-12 02:17:06+00",11.9,14.9,,48.1,-504,-59,7,1016.47,44.4,0
"2019-03-12 02:22:06+00",10.9,11.9,,49.1,-474,-16,19,1016.34,45.2,0
"2019-03-12 02:27:06+00",18.1,21.1,,50.6,-788,97,30,1016.29,46.4,0
"2019-03-12 02:32:06+00",13.8,14.8,,50.5,-613,70,31,1016.38,47.6,0
"2019-03-12 02:37:06+00",10.1,11.1,,48.2,-356,-254,16,1016.32,47.2,0
"2019-03-12 02:42:06+00",9.6,10.6,,46.3,-344,-236,20,1016.44,46,0
"2019-03-12 02:47:06+00",8.0,9.0,,45.4,-342,-128,3,1016.39,45.2,0
"2019-03-12 02:52:06+00",8.6,9.6,,45.4,-371,-45,6,1016.33,44.6,0
"2019-03-12 02:57:06+00",8.3,9.3,,45.7,-363,39,16,1016.36,44.2,0
"2019-03-12 03:02:06+00",8.8,9.8,,45.2,-378,93,17,1016.39,44.1,0
"2019-03-12 03:07:06+00",9.6,10.6,,44.6,-409,129,17,1016.44,43.7,0
"2019-03-12 03:12:06+00",11.4,13.4,,45.1,-451,229,19,1016.33,43.4,0
"2019-03-12 03:17:06+00",12.4,13.4,,45.6,-497,253,28,1016.48,43.6,0
"2019-03-12 03:22:06+00",13.1,14.1,,45.6,-474,343,32,1016.5,43.8,0
"2019-03-12 03:27:06+00",14.0,15.0,,45.9,-509,358,36,1016.53,44.2,0
"2019-03-12 03:32:06+00",12.8,13.8,,46.1,-428,371,36,1016.59,44.6,0
"2019-03-12 03:37:06+00",14.7,16.7,,46,-489,433,35,1016.52,44.6,0
"2019-03-12 03:42:06+00",16.0,18.0,,46.5,-559,456,41,1016.6,44.7,0
"2019-03-12 03:47:06+00",17.6,20.6,,47.2,-598,519,67,1016.52,45.3,0
"2019-03-12 03:52:06+00",20.9,22.9,,48,-698,615,60,1016.57,46.1,0
"2019-03-12 03:57:06+00",17.9,19.9,,47.7,-615,494,47,1016.61,46.1,0
"2019-03-12 04:02:06+00",18.1,20.1,,47.7,-656,499,48,1016.62,46,0
"2019-03-12 04:07:06+00",18.8,21.8,,47.8,-694,488,51,1016.67,46.1,0
"2019-03-12 04:12:06+00",19.9,21.9,,47.8,-720,546,51,1016.63,46.3,0
"2019-03-12 04:17:06+00",19.5,22.5,,47.7,-675,556,57,1016.67,46.3,0
"2019-03-12 04:22:06+00",17.7,18.7,,47.1,-622,492,52,1016.76,45.9,0
"2019-03-12 04:27:06+00",16.6,19.6,,46.6,-520,534,53,1016.81,45.5,0
"2019-03-12 04:32:06+00",14.2,15.2,,45.9,-427,464,35,1016.9,44.8,0
"2019-03-12 04:37:06+00",12.1,13.1,,45.5,-356,399,33,1017.06,44.2,0
"2019-03-12 04:42:06+00",12.1,13.1,,45.2,-345,415,27,1017.25,43.7,0
"2019-03-12 04:47:06+00",12.1,13.1,,45.5,-355,405,30,1017.27,43.3,0
"2019-03-12 04:52:06+00",12.1,13.1,,45.7,-357,401,31,1017.28,43.3,0
"2019-03-12 04:57:06+00",11.8,12.8,,45.6,-352,388,38,1017.37,43.6,0
"2019-03-12 05:02:06+00",12.1,13.1,,45.6,-363,399,30,1017.41,43.6,0
"2019-03-12 05:07:06+00",15.0,17.0,,45.5,-497,447,36,1017.5,43.7,0
"2019-03-12 05:12:06+00",18.2,20.2,,45.7,-589,566,48,1017.46,44.2,0
"2019-03-12 05:17:06+00",18.5,20.5,,45.2,-566,594,49,1017.49,44.1,0
"2019-03-12 05:22:06+00",17.2,19.2,,45,-485,587,44,1017.59,43.8,0
"2019-03-12 05:27:06+00",20.6,24.6,,45.2,-577,719,52,1017.62,43.7,0
"2019-03-12 05:32:06+00",19.7,22.7,,45.1,-547,679,41,1017.64,43.9,0
"2019-03-12 05:37:06+00",20.6,27.6,,45,-553,723,71,1017.7,44,0
"2019-03-12 05:42:06+00",25.3,29.3,,45.3,-826,771,51,1017.67,44.1,0
"2019-03-12 05:47:06+00",24.6,29.6,,45.1,-758,802,37,1017.67,44.1,0
"2019-03-12 05:52:06+00",25.1,33.1,,44.7,-783,822,58,1017.74,43.8,0
"2019-03-12 05:57:06+00",25.4,28.4,,44.7,-827,797,72,1017.74,43.7,0
"2019-03-12 06:02:06+00",21.7,23.7,,44.3,-696,676,62,1017.84,43.5,0
"2019-03-12 06:07:06+00",21.1,24.1,,44.1,-704,629,63,1018.05,43.2,0
"2019-03-12 06:12:06+00",15.5,17.5,,43.7,-491,497,41,1018.22,42.9,0
"2019-03-12 06:17:06+00",14.3,16.3,,43.6,-397,499,45,1018.31,42.5,0
"2019-03-12 06:22:06+00",14.6,19.6,,43.3,-353,531,43,1018.38,42.1,0
"2019-03-12 06:27:06+00",20.4,25.4,,43.3,-512,750,63,1018.36,42.1,0
"2019-03-12 06:32:06+00",24.1,30.1,,43.4,-660,853,54,1018.32,42.3,0
"2019-03-12 06:37:06+00",23.1,27.1,,43.1,-552,857,56,1018.32,42.1,0
"2019-03-12 06:42:06+00",22.6,24.6,,43.3,-613,798,54,1018.42,42.2,0
"2019-03-12 06:47:06+00",20.8,24.8,,43.2,-622,704,56,1018.35,42.1,0
"2019-03-12 06:52:06+00",18.8,20.8,,43.2,-535,655,47,1018.5,42.2,0
"2019-03-12 06:57:06+00",17.0,19.0,,42.8,-486,580,55,1018.56,41.9,0
"2019-03-12 07:02:06+00",15.4,19.4,,42.7,-433,527,38,1018.62,41.7,0
"2019-03-12 07:07:06+00",16.7,18.7,,42,-352,652,41,1018.64,41.2,0
"2019-03-12 07:12:06+00",19.9,22.9,,41.1,-26,871,26,1018.86,40.6,0
"2019-03-12 07:17:06+00",19.8,22.8,,40.1,3,872,16,1018.84,39.5,0
"2019-03-12 07:22:06+00",19.6,24.6,,39.7,-170,855,28,1018.96,38.9,0
"2019-03-12 07:27:06+00",18.8,21.8,,39.2,-116,821,29,1018.95,38.5,0
"2019-03-12 07:32:06+00",16.7,20.7,,38.7,-167,716,30,1018.95,38.1,0
"2019-03-12 07:37:06+00",19.6,23.6,,38.5,-233,833,23,1018.94,37.7,0
"2019-03-12 07:42:06+00",18.6,22.6,,38.3,-182,802,27,1018.92,37.5,0
"2019-03-12 07:47:06+00",18.3,21.3,,38.2,-181,789,6,1018.98,37.3,0
"2019-03-12 07:52:06+00",14.8,17.8,,37.8,-172,622,46,1018.98,37,0
"2019-03-12 07:57:06+00",15.3,16.3,,37.7,-229,638,29,1018.98,36.9,0
"2019-03-12 08:02:06+00",14.8,18.8,,37.5,-247,616,39,1019.06,36.7,0
"2019-03-12 08:07:06+00",17.5,21.5,,37.6,-308,713,29,1019.09,36.7,0
"2019-03-12 08:12:06+00",16.6,19.6,,37.5,-323,665,46,1018.96,36.7,0
"2019-03-12 08:17:06+00",17.4,19.4,,37.4,-345,687,46,1019,36.6,0
"2019-03-12 08:22:06+00",19.9,23.9,,37.4,-417,780,45,1018.93,36.6,0
"2019-03-12 08:27:06+00",17.9,21.9,,37.4,-384,695,24,1018.93,36.6,0
"2019-03-12 08:32:06+00",17.4,19.4,,37.3,-405,660,25,1018.8,36.5,0
"2019-03-12 08:37:06+00",17.4,20.4,,37.2,-444,630,39,1018.92,36.4,0
"2019-03-12 08:42:06+00",15.4,19.4,,37.1,-369,576,63,1018.93,36.4,0
"2019-03-12 08:47:06+00",14.6,16.6,,37.1,-380,544,43,1019.04,36.3,0
"2019-03-12 08:52:06+00",14.2,17.2,,37.2,-383,507,40,1019.06,36.3,0
"2019-03-12 08:57:06+00",13.4,15.4,,37.3,-384,446,37,1019.03,36.3,0
"2019-03-12 09:02:06+00",14.3,16.3,,37.3,-391,485,44,1019.2,36.4,0
"2019-03-12 09:07:06+00",12.4,14.4,,37.1,-357,419,39,1019.28,36.2,0
"2019-03-12 09:12:06+00",11.6,13.6,,36.9,-306,402,32,1019.39,36,0
"2019-03-12 09:17:06+00",10.8,11.8,,37,-369,323,42,1019.25,36,0
"2019-03-12 09:22:06+00",12.6,14.6,,36.8,-432,357,42,1019.2,35.9,0
"2019-03-12 09:27:06+00",12.0,13.0,,36.7,-427,340,41,1019.3,35.8,0
"2019-03-12 09:32:06+00",12.1,13.1,,36.6,-390,368,34,1019.41,35.7,0
"2019-03-12 09:37:06+00",11.6,12.6,,36.6,-400,333,28,1019.35,35.6,0
"2019-03-12 09:42:06+00",10.7,11.7,,36.5,-387,281,34,1019.44,35.5,0
"2019-03-12 09:47:06+00",10.2,11.2,,36.4,-382,248,30,1019.47,35.4,0
"2019-03-12 09:52:06+00",9.6,10.6,,36.3,-341,250,25,1019.58,35.2,0
"2019-03-12 09:57:06+00",11.0,12.0,,36.4,-425,253,33,1019.46,35,0
"2019-03-12 10:02:06+00",12.7,13.7,,36.5,-519,227,31,1019.45,35.1,0
"2019-03-12 10:07:06+00",11.3,13.3,,36.6,-475,166,27,1019.46,35.2,0
"2019-03-12 10:12:06+00",12.2,14.2,,36.7,-498,217,34,1019.5,35.4,0
"2019-03-12 10:17:06+00",11.4,13.4,,36.5,-461,191,41,1019.47,35.3,0
"2019-03-12 10:22:06+00",12.0,14.0,,36.4,-524,146,39,1019.36,35.3,0
"2019-03-12 10:27:06+00",11.5,13.5,,36.2,-487,159,33,1019.51,35.4,0
"2019-03-12 10:32:06+00",11.7,12.7,,36.2,-482,201,28,1019.62,35.3,0
"2019-03-12 10:37:06+00",11.4,14.4,,36.2,-478,190,45,1019.64,35.1,0
"2019-03-12 10:42:06+00",15.0,17.0,,36.4,-562,366,44,1019.79,35.1,0
"2019-03-12 10:47:06+00",15.6,17.6,,36.4,-556,414,46,1019.75,35.3,0
"2019-03-12 10:52:06+00",17.2,19.2,,36.2,-606,485,36,1019.75,35.3,0
"2019-03-12 10:57:06+00",15.5,17.5,,35.9,-516,460,41,1019.95,35.1,0
"2019-03-12 11:02:06+00",14.4,15.4,,35.4,-476,434,38,1019.94,34.7,0
"2019-03-12 11:07:06+00",12.1,14.1,,35.1,-414,346,30,1020,34.4,0
"2019-03-12 11:12:06+00",12.8,14.8,,35.1,-432,381,42,1020.1,34.2,0
"2019-03-12 11:17:06+00",12.0,13.0,,35.2,-398,355,40,1020.18,34.2,0
"2019-03-12 11:22:06+00",12.2,13.2,,35,-417,345,27,1020.2,34.1,0
"2019-03-12 11:27:06+00",11.1,13.1,,35.1,-325,376,37,1020.46,34,0
"2019-03-12 11:32:06+00",14.0,16.0,,35,-427,449,38,1020.45,34,0
"2019-03-12 11:37:06+00",9.6,11.6,,34.7,-227,353,23,1020.47,34,0
"2019-03-12 11:42:06+00",9.8,10.8,,34.3,-245,364,28,1020.6,33.7,0
"2019-03-12 11:47:06+00",10.5,12.5,,34.3,-297,361,24,1020.61,33.6,20.3
"2019-03-12 11:52:06+00",8.7,9.7,,34.2,-184,333,15,1020.79,33.7,19.3
"2019-03-12 11:57:06+00",9.4,10.4,,34,-237,337,28,1020.81,33.8,40.3
"2019-03-12 12:02:06+00",8.4,9.4,,34.1,-186,309,23,1020.89,34.2,50
"2019-03-12 12:07:06+00",8.9,9.9,,34.3,-252,305,21,1020.83,34.7,59.2
"2019-03-12 12:12:06+00",11.4,14.4,,34.7,-388,331,28,1020.7,35.1,72.6
"2019-03-12 12:17:06+00",8.9,9.9,,35,-286,274,22,1020.98,35.6,81.1
"2019-03-12 12:22:06+00",10.8,11.8,,35,-372,312,31,1021.03,35.9,90.1
"2019-03-12 12:27:06+00",8.4,9.4,,35.1,-233,282,34,1021.18,36.1,102.4
"2019-03-12 12:32:06+00",8.7,9.7,,35.3,-228,305,30,1021.29,36.5,115.2
"2019-03-12 12:37:06+00",8.7,9.7,,35.4,-277,267,36,1021.26,36.9,122.6
"2019-03-12 12:42:06+00",8.3,10.3,,35.6,-224,284,38,1021.27,37.1,135.1
"2019-03-12 12:47:06+00",11.1,13.1,,35.8,-327,365,37,1021.28,37.3,148.8
"2019-03-12 12:52:06+00",10.3,11.3,,36,-279,357,20,1021.47,37.5,159.1
"2019-03-12 12:57:06+00",10.4,11.4,,36.3,-202,407,15,1021.51,37.9,166.5
"2019-03-12 13:02:06+00",10.5,12.5,,36.6,-306,349,29,1021.51,38.2,173.8
"2019-03-12 13:07:06+00",10.7,12.7,,36.7,-319,361,63,1021.63,38.3,185.7
"2019-03-12 13:12:06+00",10.1,12.1,,36.9,-238,358,6,1021.66,38.5,199.5
"2019-03-12 13:17:06+00",12.1,15.1,,37.1,-273,457,51,1021.73,38.8,207.7
"2019-03-12 13:22:06+00",13.1,16.1,,37.3,-265,507,2,1021.84,39,216
"2019-03-12 13:27:06+00",13.4,15.4,,37.4,-327,493,32,1021.8,39.1,226.8
"2019-03-12 13:32:06+00",15.7,17.7,,37.2,-271,631,7,1021.88,39,235.1
"2019-03-12 13:37:06+00",14.5,17.5,,37.6,-317,548,48,1021.88,39.2,244.4
"2019-03-12 13:42:06+00",18.3,23.3,,37.6,-473,655,54,1022.11,39.2,251.6
"2019-03-12 13:47:06+00",18.7,24.7,,37.7,-285,772,38,1022.1,39.3,265.5
"2019-03-12 13:52:06+00",15.3,20.3,,37.7,-319,598,42,1022.06,39.4,271.3
"2019-03-12 13:57:06+00",16.8,18.8,,37.8,-383,644,53,1022.01,39.4,274.2
"2019-03-12 14:02:06+00",23.2,27.2,,37.8,-727,754,64,1022.14,39.3,276.1
"2019-03-12 14:07:06+00",19.3,22.3,,37.8,-331,777,41,1022.24,39.3,289.7
"2019-03-12 14:12:06+00",23.8,26.8,,37.9,-594,877,49,1022.17,39.4,283.2
"2019-03-12 14:17:06+00",20.4,23.4,,38,-544,732,47,1022.11,39.5,304.2
"2019-03-12 14:22:06+00",21.9,24.9,,38,-649,720,40,1022.15,39.4,313.1
"2019-03-12 14:27:06+00",21.2,25.2,,38.1,-487,786,68,1022.36,39.6,321.2
"2019-03-12 14:32:06+00",23.0,27.0,,38.1,-432,908,36,1022.38,39.6,331.3
"2019-03-12 14:37:06+00",17.5,18.5,,38,-423,653,41,1022.22,39.7,342.1
"2019-03-12 14:42:06+00",24.8,31.8,,38.3,-472,986,74,1022.22,40,349.9
"2019-03-12 14:47:06+00",26.0,29.0,,38,-576,993,40,1022.14,39.8,356
"2019-03-12 14:52:06+00",24.1,27.1,,38,-688,825,36,1022.02,39.6,363
"2019-03-12 14:57:06+00",21.3,23.3,,37.8,-649,701,54,1021.96,39.6,369.5
"2019-03-12 15:02:06+00",18.8,21.8,,38.4,-475,689,41,1022.04,40.1,376.4
"2019-03-12 15:07:06+00",19.2,22.2,,38.3,-261,806,26,1022.06,40.3,383.4
"2019-03-12 15:12:06+00",20.0,23.0,,38.3,-377,797,50,1022.11,40.4,391.3
"2019-03-12 15:17:06+00",19.4,20.4,,38.9,-603,631,54,1022.02,40.8,399.1
"2019-03-12 15:22:06+00",16.5,18.5,,38.8,-455,581,51,1022.02,40.9,403
"2019-03-12 15:27:06+00",19.7,22.7,,38.8,-628,618,31,1022.05,41.1,412.8
"2019-03-12 15:32:06+00",19.4,22.4,,39.3,-501,704,82,1022,41.3,416.2
"2019-03-12 15:37:06+00",17.4,20.4,,38.7,-403,655,37,1021.96,41.1,423.3
"2019-03-12 15:42:06+00",20.7,23.7,,38.6,-662,653,50,1022.11,41.1,429.4
"2019-03-12 15:47:06+00",13.9,17.9,,38.9,-449,432,63,1022.21,40.9,433.7
"2019-03-12 15:52:06+00",14.7,16.7,,39.3,-357,541,39,1022.12,41.2,442
"2019-03-12 15:57:06+00",19.2,22.2,,39.4,-487,696,49,1021.91,41.8,445.1
"2019-03-12 16:02:06+00",14.7,17.7,,39.3,-132,630,10,1022.14,41.8,448.9
"2019-03-12 16:07:06+00",14.5,19.5,,39.8,-124,616,14,1022.07,42.2,454.8
"2019-03-12 16:12:06+00",15.0,18.0,,39.8,-195,631,30,1022.24,42.7,456.9
"2019-03-12 16:17:06+00",16.4,20.4,,40.2,-191,672,20,1022.36,42.8,461.5
"2019-03-12 16:22:06+00",12.8,14.8,,39.5,-454,341,48,1022.42,42.3,461.9
"2019-03-12 16:27:06+00",17.3,20.3,,39.8,-515,575,48,1022.47,42.1,466.3
"2019-03-12 16:32:06+00",20.5,23.5,,40.1,-475,769,61,1022.38,42.3,403.5
"2019-03-12 16:37:06+00",14.6,18.6,,40.3,-241,589,42,1022.49,42.7,471.5
"2019-03-12 16:42:06+00",12.8,15.8,,40,-222,513,15,1022.48,42.4,472.4
"2019-03-12 16:47:06+00",18.0,20.0,,40.5,-536,577,51,1022.58,42.8,475
"2019-03-12 16:52:06+00",18.3,20.3,,40.2,-594,566,52,1022.56,42.7,474.8
"2019-03-12 16:57:06+00",18.0,21.0,,40.3,-529,614,36,1022.43,42.6,475.9
"2019-03-12 17:02:06+00",17.7,20.7,,40.6,-405,649,86,1022.66,42.6,476.4
"2019-03-12 17:07:06+00",15.6,18.6,,41,-220,647,38,1022.61,43.2,474.1
"2019-03-12 17:12:06+00",18.9,21.9,,40.6,-632,557,44,1022.46,43,473.5
"2019-03-12 17:17:06+00",13.1,15.1,,40.5,-471,354,34,1022.6,42.9,471.4
"2019-03-12 17:22:06+00",19.4,22.4,,40.6,-535,687,26,1022.53,42.9,471.4
"2019-03-12 17:27:06+00",16.6,18.6,,41,-336,650,43,1022.47,42.9,468.7
"2019-03-12 17:32:06+00",19.3,21.3,,41,-650,567,45,1022.42,43.2,468.3
"2019-03-12 17:37:06+00",14.7,16.7,,41.1,-377,534,50,1022.19,43.4,464.2
"2019-03-12 17:42:06+00",19.5,28.5,,41.4,-386,699,40,1021.88,43.6,457
"2019-03-12 17:47:06+00",16.2,19.2,,41.2,-658,330,62,1022.08,43.7,456.4
"2019-03-12 17:52:06+00",15.3,20.3,,41.3,-476,497,62,1022.08,43.6,452
"2019-03-12 17:57:06+00",11.6,13.6,,41.4,-367,361,22,1021.91,43.7,446.6
"2019-03-12 18:02:06+00",18.8,20.8,,41.7,-665,528,45,1022,44,443.1
"2019-03-12 18:07:06+00",17.4,20.4,,41.7,-566,526,40,1021.97,43.9,439.3
"2019-03-12 18:12:06+00",15.0,17.0,,41.9,-362,562,35,1021.82,44,436.8
"2019-03-12 18:17:06+00",17.3,20.3,,41.6,-583,538,75,1021.67,43.9,432.9
"2019-03-12 18:22:06+00",13.4,14.4,,41.6,-461,382,35,1021.73,43.8,425.3
"2019-03-12 18:27:06+00",20.9,23.9,,42.2,-625,697,91,1021.65,44.3,417.4
"2019-03-12 18:32:06+00",13.9,14.9,,42,-433,439,45,1021.57,44.2,409.4
"2019-03-12 18:37:06+00",18.7,22.7,,41.8,-739,430,75,1021.55,44.1,407.7
"2019-03-12 18:42:06+00",14.8,16.8,,42.1,-625,239,49,1021.65,44.1,398.6
"2019-03-12 18:47:06+00",19.8,24.8,,42.4,-659,582,73,1021.54,44.4,390.5
"2019-03-12 18:52:06+00",16.9,20.9,,42.7,-463,599,84,1021.51,44.5,384.5
"2019-03-12 18:57:06+00",20.4,22.4,,42.6,-710,565,49,1021.53,44.6,378.7
"2019-03-12 19:02:06+00",14.0,17.0,,42.4,-388,486,51,1021.49,44.5,369.5
"2019-03-12 19:07:06+00",18.7,20.7,,42.9,-323,759,47,1021.4,44.9,365.9
"2019-03-12 19:12:06+00",14.8,16.8,,42.5,-336,551,11,1021.39,44.7,357.6
"2019-03-12 19:17:06+00",12.2,14.2,,42.7,-442,344,33,1021.51,44.9,349.5
"2019-03-12 19:22:06+00",11.8,15.8,,43.1,-336,379,116,1021.45,45.2,338.6
"2019-03-12 19:27:06+00",18.4,20.4,,42.8,-514,626,45,1021.41,45.2,332.7
"2019-03-12 19:32:06+00",20.0,22.0,,42.9,-454,764,39,1021.37,45.2,328.3
"2019-03-12 19:37:06+00",18.9,20.9,,43.1,-630,565,45,1021.47,45.4,321
"2019-03-12 19:42:06+00",13.7,16.7,,43.3,-460,400,39,1021.56,45.6,309.9
"2019-03-12 19:47:06+00",18.9,20.9,,43.1,-575,617,82,1021.54,45.4,303.4
"2019-03-12 19:52:06+00",21.3,25.3,,43.3,-478,813,47,1021.55,45.6,297.8
"2019-03-12 19:57:06+00",22.1,24.1,,43.4,-447,874,35,1021.57,45.5,290.9
"2019-03-12 20:02:06+00",17.9,20.9,,43.1,-625,501,38,1021.52,45.5,281.6
"2019-03-12 20:07:06+00",24.0,27.0,,43,-498,938,49,1021.54,45.3,273.9
"2019-03-12 20:12:06+00",21.1,24.1,,43.3,-616,710,40,1021.58,45.3,267.4
"2019-03-12 20:17:06+00",15.5,17.5,,43.1,-461,516,45,1021.67,45.2,260.7
"2019-03-12 20:22:06+00",18.9,23.9,,43.3,-509,678,57,1021.73,45.4,258.6
"2019-03-12 20:27:06+00",22.2,25.2,,43.1,-482,852,52,1021.61,45.3,248.7
"2019-03-12 20:32:06+00",21.6,23.6,,43.1,-673,685,46,1021.63,45.2,238.9
"2019-03-12 20:37:06+00",17.8,22.8,,43.4,-438,672,47,1021.63,45.3,232.5
"2019-03-12 20:42:06+00",21.6,23.6,,43.2,-675,683,60,1021.74,45.3,226.2
"2019-03-12 20:47:06+00",19.6,24.6,,43.2,-478,728,48,1021.79,45.2,216.6
"2019-03-12 20:52:06+00",15.2,17.2,,43.4,-459,501,45,1021.86,45.2,208.4
"2019-03-12 20:57:06+00",17.8,20.8,,43.2,-557,568,39,1021.87,45.2,202
"2019-03-12 21:02:06+00",22.1,26.1,,43.6,-317,922,49,1021.98,45.3,192.7
"2019-03-12 21:07:06+00",17.8,20.8,,43.6,-599,521,55,1021.95,45.3,183.2
"2019-03-12 21:12:06+00",22.1,24.1,,43.3,-506,841,51,1022.21,45.1,174.7
"2019-03-12 21:17:06+00",18.5,20.5,,43.3,-513,652,52,1022.13,45,163.6
"2019-03-12 21:22:06+00",18.8,27.8,,43.7,-439,672,65,1022.05,45.2,154.2
"2019-03-12 21:27:06+00",26.1,30.1,,43.5,-558,1016,59,1022.17,44.9,145.7
"2019-03-12 21:32:06+00",19.8,23.8,,43.3,-395,787,42,1022.22,44.6,134
"2019-03-12 21:37:06+00",22.7,25.7,,43.2,-469,899,44,1022.34,44.4,123.9
"2019-03-12 21:42:06+00",17.0,21.0,,43.3,-388,633,63,1022.37,44.4,113.9
"2019-03-12 21:47:06+00",23.3,26.3,,43.2,-548,876,55,1022.29,44.3,102.1
"2019-03-12 21:52:06+00",18.6,23.6,,43.1,-459,695,60,1022.27,44.2,90.7
"2019-03-12 21:57:06+00",18.2,21.2,,43.2,-492,643,58,1022.23,44.2,80.7
"2019-03-12 22:02:06+00",16.0,19.0,,43.2,-438,572,50,1022.3,44.2,68.9
"2019-03-12 22:07:06+00",22.4,26.4,,43,-585,815,52,1022.45,44,59.3
"2019-03-12 22:12:06+00",20.7,23.7,,42.7,-490,775,58,1022.62,43.5,48.2
"2019-03-12 22:17:06+00",20.8,23.8,,42.6,-239,881,36,1022.7,43.2,37.1
"2019-03-12 22:22:06+00",20.4,24.4,,42.7,-441,798,39,1022.72,43.2,27.3
"2019-03-12 22:27:06+00",16.2,18.2,,42.6,-345,624,69,1022.91,43,17.3
"2019-03-12 22:32:06+00",15.5,18.5,,42.5,-379,592,55,1023.05,42.9,8.6
"2019-03-12 22:37:06+00",15.9,17.9,,42.3,-228,669,23,1023.07,42.7,1.3
"2019-03-12 22:42:06+00",14.3,17.3,,42.1,-175,599,18,1023.15,42.4,0
"2019-03-12 22:47:06+00",16.5,18.5,,42.1,-172,706,17,1023.2,42.1,0
"2019-03-12 22:52:06+00",11.6,13.6,,41.9,-250,451,27,1023.34,41.8,0
"2019-03-12 22:57:06+00",14.5,16.5,,41.8,-300,568,30,1023.36,41.5,0
"2019-03-12 23:02:06+00",14.0,16.0,,41.7,-295,547,42,1023.46,41.2,0
"2019-03-12 23:07:06+00",15.4,16.4,,41.4,-194,643,26,1023.65,40.9,0
"2019-03-12 23:12:06+00",17.5,19.5,,41.5,-183,745,19,1023.73,40.6,0
"2019-03-12 23:17:06+00",15.3,17.3,,41.2,-149,658,9,1023.78,40.3,0
"2019-03-12 23:22:06+00",15.2,18.2,,40.9,-184,653,22,1023.68,40,0
"2019-03-12 23:27:06+00",11.6,12.6,,40.6,-125,491,22,1023.68,39.7,0
"2019-03-12 23:32:06+00",13.1,15.1,,40.2,-103,577,9,1023.71,39.2,0
"2019-03-12 23:37:06+00",13.4,15.4,,40.1,-108,575,14,1023.76,38.8,0
"2019-03-12 23:42:06+00",13.1,14.1,,39.9,-96,561,9,1023.76,38.5,0
"2019-03-12 23:47:06+00",11.1,12.1,,39.7,-45,478,15,1023.9,38.2,0
"2019-03-12 23:52:06+00",9.4,10.4,,39.5,-16,411,9,1023.97,37.9,0
"2019-03-12 23:57:06+00",9.9,10.9,,39.3,10,434,4,1024.08,37.6,0
